TOM70 EGKK-KMLB

Flight info

Callsign TOM70
Flight time 8h 16m
Altitude 40000
Route IMVUR N63 SAM N19 ADKIK DCT JOZMA DCT GAPLI/M085F400 DCT OMOKO DCT 47N020W 46N030W 45N040W 44N050W 41N060W DCT MUNEY M202 UKOKA/N0485F400 M202 HOBEE AR6 BITHO BITHO7
Aircraft B789/H-SDE1E2E3FGHIJ2J3J4J5M1RWXY/LB1D1

Departure

Time 2026-04-23 10:10
Airport London Gatwick Airport (EGKK)

Arrival

Time 2026-04-23 18:26
Airport Melbourne Orlando International Airport (KMLB)
Time Latitude Longitude Altitude Speed Heading
2026-04-23 09:45 51.15828 -0.17628 209 ft 0 kts 347°
2026-04-23 09:46 51.15827 -0.17628 209 ft 0 kts 347°
2026-04-23 09:53 51.15818 -0.17624 219 ft 4 kts 347°
2026-04-23 09:53 51.15791 -0.17615 219 ft 4 kts 347°
2026-04-23 09:54 51.15766 -0.17606 218 ft 4 kts 339°
2026-04-23 09:54 51.15751 -0.17586 222 ft 4 kts 266°
2026-04-23 09:54 51.15755 -0.17553 217 ft 4 kts 257°
2026-04-23 09:54 51.15760 -0.17511 216 ft 4 kts 257°
2026-04-23 09:55 51.15766 -0.17469 209 ft 4 kts 257°
2026-04-23 09:55 51.15772 -0.17427 211 ft 4 kts 257°
2026-04-23 09:55 51.15775 -0.17405 212 ft 0 kts 257°
2026-04-23 09:57 51.15768 -0.17454 209 ft 8 kts 251°
2026-04-23 09:57 51.15718 -0.17490 219 ft 11 kts 179°
2026-04-23 09:58 51.15623 -0.17458 215 ft 17 kts 166°
2026-04-23 09:58 51.15483 -0.17415 209 ft 24 kts 168°
2026-04-23 09:58 51.15313 -0.17392 218 ft 20 kts 219°
2026-04-23 09:58 51.15281 -0.17592 209 ft 21 kts 258°
2026-04-23 09:59 51.15247 -0.17829 209 ft 23 kts 257°
2026-04-23 09:59 51.15212 -0.18090 211 ft 25 kts 258°
2026-04-23 09:59 51.15179 -0.18369 211 ft 27 kts 260°
2026-04-23 09:59 51.15136 -0.18669 212 ft 29 kts 257°
2026-04-23 10:00 51.15094 -0.18989 211 ft 30 kts 258°
2026-04-23 10:00 51.15028 -0.19263 216 ft 21 kts 208°
2026-04-23 10:00 51.14947 -0.19402 214 ft 18 kts 256°
2026-04-23 10:00 51.14916 -0.19616 215 ft 21 kts 257°
2026-04-23 10:01 51.14880 -0.19861 219 ft 25 kts 260°
2026-04-23 10:01 51.14843 -0.20149 208 ft 29 kts 258°
2026-04-23 10:01 51.14798 -0.20468 220 ft 28 kts 257°
2026-04-23 10:01 51.14759 -0.20764 212 ft 27 kts 257°
2026-04-23 10:02 51.14719 -0.21051 215 ft 26 kts 258°
2026-04-23 10:02 51.14700 -0.21196 214 ft 0 kts 258°
2026-04-23 10:03 51.14693 -0.21246 217 ft 8 kts 256°
2026-04-23 10:03 51.14647 -0.21327 214 ft 8 kts 190°
2026-04-23 10:03 51.14626 -0.21325 220 ft 0 kts 175°
2026-04-23 10:07 51.14625 -0.21325 214 ft 2 kts 175°
2026-04-23 10:08 51.14587 -0.21311 211 ft 8 kts 157°
2026-04-23 10:08 51.14525 -0.21215 217 ft 16 kts 111°
2026-04-23 10:08 51.14530 -0.21092 210 ft 8 kts 83°
2026-04-23 10:09 51.14536 -0.21047 214 ft 0 kts 77°
2026-04-23 10:09 51.14549 -0.20955 215 ft 34 kts 77°
2026-04-23 10:10 51.14657 -0.20193 218 ft 106 kts 77°
2026-04-23 10:10 51.14859 -0.18714 238 ft 163 kts 79°
2026-04-23 10:10 51.15097 -0.16854 801 ft 176 kts 77°
2026-04-23 10:10 51.15390 -0.14959 1853 ft 176 kts 78°
2026-04-23 10:11 51.15662 -0.12937 2515 ft 199 kts 81°
2026-04-23 10:11 51.15957 -0.10680 2998 ft 229 kts 81°
2026-04-23 10:11 51.16448 -0.08081 3808 ft 247 kts 61°
2026-04-23 10:11 51.17575 -0.06125 5378 ft 248 kts 40°
2026-04-23 10:12 51.19262 -0.05284 6406 ft 265 kts
2026-04-23 10:12 51.21068 -0.06032 7515 ft 277 kts 328°
2026-04-23 10:12 51.22359 -0.08316 8562 ft 286 kts 294°
2026-04-23 10:12 51.22670 -0.11422 9635 ft 286 kts 262°
2026-04-23 10:13 51.22283 -0.14557 10552 ft 296 kts 251°
2026-04-23 10:13 51.21544 -0.17710 11303 ft 306 kts 245°
2026-04-23 10:13 51.20736 -0.20803 12365 ft 310 kts 247°
2026-04-23 10:13 51.20002 -0.24076 13312 ft 316 kts 251°
2026-04-23 10:14 51.19301 -0.27534 13765 ft 341 kts 251°
2026-04-23 10:14 51.18513 -0.31256 14078 ft 368 kts 250°
2026-04-23 10:14 51.17631 -0.35243 14357 ft 395 kts 250°
2026-04-23 10:14 51.16704 -0.39457 14985 ft 405 kts 250°
2026-04-23 10:15 51.15782 -0.43715 15898 ft 410 kts 251°
2026-04-23 10:15 51.14856 -0.47975 16706 ft 415 kts 251°
2026-04-23 10:15 51.13901 -0.52329 17560 ft 419 kts 251°
2026-04-23 10:15 51.12931 -0.56736 18380 ft 424 kts 251°
2026-04-23 10:16 51.11951 -0.61191 19097 ft 429 kts 251°
2026-04-23 10:16 51.10963 -0.65683 19815 ft 432 kts 252°
2026-04-23 10:16 51.09964 -0.70208 20518 ft 435 kts 252°
2026-04-23 10:16 51.08956 -0.74756 21199 ft 438 kts 252°
2026-04-23 10:17 51.07939 -0.79344 21854 ft 441 kts 252°
2026-04-23 10:17 51.06914 -0.83955 22480 ft 444 kts 252°
2026-04-23 10:17 51.05878 -0.88607 23099 ft 447 kts 253°
2026-04-23 10:17 51.04847 -0.93221 23679 ft 451 kts 253°
2026-04-23 10:18 51.03793 -0.97927 24223 ft 453 kts 253°
2026-04-23 10:18 51.02734 -1.02648 24725 ft 455 kts 253°
2026-04-23 10:18 51.01667 -1.07396 25208 ft 457 kts 253°
2026-04-23 10:18 51.00594 -1.12158 25686 ft 459 kts 253°
2026-04-23 10:19 50.99512 -1.16949 26124 ft 462 kts 253°
2026-04-23 10:19 50.98424 -1.21755 26582 ft 464 kts 253°
2026-04-23 10:19 50.97328 -1.26585 27012 ft 466 kts 253°
2026-04-23 10:19 50.96240 -1.31368 27425 ft 468 kts 253°
2026-04-23 10:20 50.95292 -1.36295 27809 ft 466 kts 263°
2026-04-23 10:20 50.94674 -1.41345 28136 ft 468 kts 262°
2026-04-23 10:20 50.94019 -1.46408 28543 ft 470 kts 261°
2026-04-23 10:20 50.93358 -1.51498 28915 ft 472 kts 262°
2026-04-23 10:21 50.92707 -1.56608 29277 ft 474 kts 262°
2026-04-23 10:21 50.92054 -1.61738 29625 ft 476 kts 262°
2026-04-23 10:21 50.91388 -1.66888 29938 ft 478 kts 262°
2026-04-23 10:21 50.90724 -1.71982 30260 ft 480 kts 262°
2026-04-23 10:22 50.90049 -1.77171 30562 ft 482 kts 262°
2026-04-23 10:22 50.89371 -1.82383 30844 ft 484 kts 262°
2026-04-23 10:22 50.88687 -1.87605 31082 ft 485 kts 262°
2026-04-23 10:22 50.87998 -1.92839 31360 ft 486 kts 261°
2026-04-23 10:23 50.87305 -1.98077 31615 ft 487 kts 261°
2026-04-23 10:23 50.86610 -2.03322 31976 ft 486 kts 261°
2026-04-23 10:23 50.85917 -2.08538 32332 ft 484 kts 261°
2026-04-23 10:23 50.85231 -2.13675 32714 ft 483 kts 261°
2026-04-23 10:24 50.84536 -2.18866 33073 ft 481 kts 261°
2026-04-23 10:24 50.83841 -2.24036 33433 ft 480 kts 261°
2026-04-23 10:24 50.83145 -2.29196 33786 ft 479 kts 261°
2026-04-23 10:24 50.82448 -2.34339 34130 ft 478 kts 262°
2026-04-23 10:25 50.81752 -2.39470 34452 ft 477 kts 261°
2026-04-23 10:25 50.81053 -2.44590 34730 ft 476 kts 261°
2026-04-23 10:25 50.80362 -2.49637 34974 ft 476 kts 261°
2026-04-23 10:25 50.79666 -2.54747 35238 ft 475 kts 263°
2026-04-23 10:26 50.79095 -2.59879 35445 ft 475 kts 263°
2026-04-23 10:26 50.78487 -2.65015 35700 ft 475 kts 262°
2026-04-23 10:26 50.77873 -2.70139 35949 ft 475 kts 262°
2026-04-23 10:26 50.77284 -2.75227 36195 ft 474 kts 263°
2026-04-23 10:27 50.76696 -2.80350 36434 ft 474 kts 262°
2026-04-23 10:27 50.76095 -2.85462 36737 ft 472 kts 262°
2026-04-23 10:27 50.75496 -2.90481 37024 ft 471 kts 262°
2026-04-23 10:27 50.74893 -2.95557 37266 ft 470 kts 262°
2026-04-23 10:28 50.74294 -3.00632 37510 ft 470 kts 262°
2026-04-23 10:28 50.73691 -3.05691 37751 ft 469 kts 261°
2026-04-23 10:28 50.73083 -3.10750 37983 ft 469 kts 261°
2026-04-23 10:28 50.72474 -3.15800 38217 ft 468 kts 261°
2026-04-23 10:29 50.71866 -3.20842 38447 ft 468 kts 261°
2026-04-23 10:29 50.71255 -3.25884 38669 ft 467 kts 261°
2026-04-23 10:29 50.70652 -3.30837 38894 ft 466 kts 261°
2026-04-23 10:29 50.70039 -3.35850 39121 ft 465 kts 261°
2026-04-23 10:30 50.68807 -3.45888 39359 ft 467 kts 261°
2026-04-23 10:30 50.68186 -3.50915 39527 ft 466 kts 261°
2026-04-23 10:30 50.67563 -3.55938 39609 ft 468 kts 260°
2026-04-23 10:31 50.66936 -3.60972 39749 ft 467 kts 260°
2026-04-23 10:31 50.66309 -3.65995 39896 ft 467 kts 261°
2026-04-23 10:31 50.65053 -3.75993 40058 ft 469 kts 260°
2026-04-23 10:32 50.64416 -3.81026 40248 ft 468 kts 260°
2026-04-23 10:32 50.63779 -3.86051 40339 ft 469 kts 260°
2026-04-23 10:32 50.62486 -3.96190 40333 ft 475 kts 259°
2026-04-23 10:33 50.61077 -4.06421 40347 ft 481 kts 258°
2026-04-23 10:33 50.59676 -4.16690 40337 ft 486 kts 259°
2026-04-23 10:34 50.58234 -4.27145 40342 ft 491 kts 258°
2026-04-23 10:34 50.56766 -4.37697 40340 ft 496 kts 258°
2026-04-23 10:35 50.55279 -4.48342 40334 ft 501 kts 258°
2026-04-23 10:35 50.53775 -4.58999 40336 ft 504 kts 258°
2026-04-23 10:36 50.52248 -4.69775 40314 ft 505 kts 257°
2026-04-23 10:36 50.50726 -4.80412 40290 ft 491 kts 257°
2026-04-23 10:37 50.49238 -4.90762 40281 ft 483 kts 257°
2026-04-23 10:37 50.47757 -5.00979 40284 ft 485 kts 257°
2026-04-23 10:38 50.46249 -5.11314 40285 ft 486 kts 257°
2026-04-23 10:38 50.44729 -5.21671 40287 ft 487 kts 256°
2026-04-23 10:39 50.43199 -5.32016 40284 ft 487 kts 256°
2026-04-23 10:39 50.41672 -5.42279 40283 ft 486 kts 256°
2026-04-23 10:40 50.40127 -5.52593 40287 ft 487 kts 256°
2026-04-23 10:40 50.38573 -5.62902 40288 ft 485 kts 256°
2026-04-23 10:41 50.37017 -5.73156 40280 ft 483 kts 256°
2026-04-23 10:41 50.35453 -5.83399 40281 ft 484 kts 255°
2026-04-23 10:42 50.33891 -5.93558 40286 ft 484 kts 256°
2026-04-23 10:42 50.32310 -6.03785 40291 ft 482 kts 255°
2026-04-23 10:43 50.30732 -6.13922 40295 ft 478 kts 254°
2026-04-23 10:43 50.29153 -6.23998 40287 ft 478 kts 255°
2026-04-23 10:44 50.27577 -6.33995 40286 ft 476 kts 255°
2026-04-23 10:44 50.25984 -6.44045 40285 ft 477 kts 255°
2026-04-23 10:45 50.24384 -6.54078 40284 ft 476 kts 254°
2026-04-23 10:45 50.22774 -6.64111 40275 ft 476 kts 254°
2026-04-23 10:46 50.21165 -6.74072 40274 ft 476 kts 253°
2026-04-23 10:46 50.19542 -6.84072 40268 ft 475 kts 254°
2026-04-23 10:47 50.17906 -6.94073 40264 ft 476 kts 253°
2026-04-23 10:47 50.16258 -7.04107 40264 ft 478 kts 253°
2026-04-23 10:48 50.14598 -7.14145 40263 ft 478 kts 253°
2026-04-23 10:48 50.12938 -7.24126 40257 ft 478 kts 253°
2026-04-23 10:49 50.11262 -7.34149 40271 ft 478 kts 253°
2026-04-23 10:49 50.09569 -7.44204 40251 ft 481 kts 252°
2026-04-23 10:50 50.07864 -7.54280 40244 ft 481 kts 252°
2026-04-23 10:50 50.06161 -7.64285 40246 ft 481 kts 252°
2026-04-23 10:51 50.04441 -7.74331 40243 ft 480 kts 252°
2026-04-23 10:51 50.02711 -7.84374 40238 ft 481 kts 252°
2026-04-23 10:52 50.00969 -7.94431 40237 ft 482 kts 252°
2026-04-23 10:52 49.98875 -8.04183 40231 ft 478 kts 245°
2026-04-23 10:53 49.96331 -8.13744 40234 ft 479 kts 245°
2026-04-23 10:53 49.93759 -8.23299 40207 ft 480 kts 244°
2026-04-23 10:54 49.91181 -8.32861 40212 ft 480 kts 244°
2026-04-23 10:54 49.88613 -8.42341 40209 ft 480 kts 244°
2026-04-23 10:55 49.86026 -8.51853 40206 ft 478 kts 244°
2026-04-23 10:55 49.83437 -8.61335 40201 ft 477 kts 244°
2026-04-23 10:56 49.80848 -8.70778 40206 ft 475 kts 244°
2026-04-23 10:56 49.78275 -8.80127 40205 ft 476 kts 243°
2026-04-23 10:57 49.75670 -8.89550 40198 ft 477 kts 243°
2026-04-23 10:57 49.73054 -8.98979 40199 ft 477 kts 243°
2026-04-23 10:58 49.70428 -9.08407 40195 ft 479 kts 243°
2026-04-23 10:58 49.67788 -9.17846 40193 ft 478 kts 243°
2026-04-23 10:59 49.65167 -9.27180 40191 ft 477 kts 243°
2026-04-23 10:59 49.62526 -9.36544 40188 ft 475 kts 243°
2026-04-23 11:00 49.59882 -9.45885 40183 ft 476 kts 243°
2026-04-23 11:00 49.57223 -9.55242 40169 ft 477 kts 243°
2026-04-23 11:01 49.54567 -9.64555 40174 ft 479 kts 243°
2026-04-23 11:01 49.51878 -9.73942 40179 ft 480 kts 242°
2026-04-23 11:02 49.49183 -9.83318 40178 ft 478 kts 242°
2026-04-23 11:02 49.46487 -9.92658 40167 ft 477 kts 242°
2026-04-23 11:03 49.43817 -10.01872 40157 ft 475 kts 242°
2026-04-23 11:03 49.41124 -10.11130 40152 ft 475 kts 242°
2026-04-23 11:04 49.38424 -10.20378 40151 ft 475 kts 242°
2026-04-23 11:04 49.35719 -10.29608 40171 ft 475 kts 241°
2026-04-23 11:05 49.33023 -10.38771 40148 ft 474 kts 241°
2026-04-23 11:05 49.30308 -10.47963 40145 ft 473 kts 241°
2026-04-23 11:06 49.26225 -10.61724 40139 ft 474 kts 241°
2026-04-23 11:07 49.23487 -10.70907 40164 ft 475 kts 240°
2026-04-23 11:07 49.20749 -10.80057 40147 ft 477 kts 240°
2026-04-23 11:08 49.17982 -10.89270 40137 ft 477 kts 240°
2026-04-23 11:08 49.15207 -10.98471 40137 ft 477 kts 240°
2026-04-23 11:09 49.12426 -11.07661 40140 ft 477 kts 240°
2026-04-23 11:09 49.09635 -11.16848 40127 ft 477 kts 240°
2026-04-23 11:10 49.06866 -11.25932 40118 ft 475 kts 240°
2026-04-23 11:10 49.04074 -11.35054 40111 ft 474 kts 239°
2026-04-23 11:11 49.01278 -11.44155 40108 ft 474 kts 239°
2026-04-23 11:11 48.98470 -11.53263 40115 ft 476 kts 239°
2026-04-23 11:12 48.95657 -11.62352 40120 ft 479 kts 239°
2026-04-23 11:12 48.92810 -11.71522 40109 ft 480 kts 239°
2026-04-23 11:13 48.89961 -11.80663 40111 ft 476 kts 239°
2026-04-23 11:13 48.87119 -11.89742 40133 ft 475 kts 239°
2026-04-23 11:14 48.84314 -11.98725 40102 ft 473 kts 243°
2026-04-23 11:14 48.82321 -12.08331 40105 ft 480 kts 249°
2026-04-23 11:15 48.80487 -12.18089 40100 ft 481 kts 248°
2026-04-23 11:15 48.78624 -12.27851 40101 ft 482 kts 248°
2026-04-23 11:16 48.76770 -12.37565 40082 ft 484 kts 248°
2026-04-23 11:16 48.74885 -12.47370 40079 ft 485 kts 248°
2026-04-23 11:17 48.72993 -12.57167 40084 ft 484 kts 248°
2026-04-23 11:17 48.71095 -12.66943 40073 ft 483 kts 248°
2026-04-23 11:18 48.69189 -12.76707 40067 ft 485 kts 248°
2026-04-23 11:18 48.67282 -12.86434 40061 ft 486 kts 248°
2026-04-23 11:19 48.65349 -12.96240 40056 ft 487 kts 248°
2026-04-23 11:19 48.63406 -13.06046 40058 ft 487 kts 248°
2026-04-23 11:20 48.61454 -13.15844 40045 ft 488 kts 248°
2026-04-23 11:20 48.59503 -13.25596 40049 ft 488 kts 248°
2026-04-23 11:21 48.57529 -13.35413 40050 ft 488 kts 248°
2026-04-23 11:21 48.55548 -13.45209 40042 ft 488 kts 247°
2026-04-23 11:22 48.53561 -13.54994 40040 ft 487 kts 247°
2026-04-23 11:22 48.51580 -13.64698 40034 ft 487 kts 247°
2026-04-23 11:23 48.49579 -13.74452 40036 ft 487 kts 247°
2026-04-23 11:23 48.47571 -13.84190 40027 ft 486 kts 247°
2026-04-23 11:24 48.45557 -13.93911 40047 ft 486 kts 247°
2026-04-23 11:24 48.43545 -14.03574 40016 ft 487 kts 247°
2026-04-23 11:25 48.41509 -14.13310 40010 ft 488 kts 247°
2026-04-23 11:25 48.39464 -14.23038 40011 ft 487 kts 247°
2026-04-23 11:26 48.37411 -14.32757 40000 ft 487 kts 247°
2026-04-23 11:26 48.35362 -14.42415 39994 ft 488 kts 247°
2026-04-23 11:27 48.33293 -14.52120 39989 ft 487 kts 246°
2026-04-23 11:27 48.31220 -14.61795 39977 ft 486 kts 246°
2026-04-23 11:28 48.29141 -14.71454 39973 ft 486 kts 246°
2026-04-23 11:28 48.27050 -14.81115 39963 ft 488 kts 246°
2026-04-23 11:29 48.24956 -14.90760 39969 ft 490 kts 246°
2026-04-23 11:29 48.22833 -15.00483 39962 ft 490 kts 246°
2026-04-23 11:30 48.20705 -15.10189 39953 ft 490 kts 246°
2026-04-23 11:30 48.18568 -15.19887 39959 ft 490 kts 246°
2026-04-23 11:31 48.16439 -15.29504 39943 ft 489 kts 246°
2026-04-23 11:31 48.14291 -15.39162 39934 ft 489 kts 246°
2026-04-23 11:32 48.12135 -15.48811 39935 ft 488 kts 246°
2026-04-23 11:32 48.09973 -15.58445 39923 ft 488 kts 246°
2026-04-23 11:33 48.07820 -15.67998 39908 ft 487 kts 246°
2026-04-23 11:33 48.05648 -15.77584 39914 ft 487 kts 246°
2026-04-23 11:34 48.03465 -15.87181 39903 ft 488 kts 246°
2026-04-23 11:34 48.01266 -15.96801 39897 ft 491 kts 246°
2026-04-23 11:35 47.99050 -16.06457 39893 ft 492 kts 246°
2026-04-23 11:35 47.96837 -16.16051 39880 ft 492 kts 245°
2026-04-23 11:36 47.94605 -16.25688 39880 ft 491 kts 245°
2026-04-23 11:36 47.92367 -16.35306 39874 ft 492 kts 245°
2026-04-23 11:37 47.90118 -16.44933 39872 ft 492 kts 245°
2026-04-23 11:37 47.87875 -16.54485 39864 ft 491 kts 245°
2026-04-23 11:38 47.85615 -16.64071 39843 ft 490 kts 245°
2026-04-23 11:38 47.83350 -16.73634 39846 ft 490 kts 245°
2026-04-23 11:39 47.81074 -16.83204 39835 ft 491 kts 245°
2026-04-23 11:39 47.78805 -16.92705 39822 ft 491 kts 245°
2026-04-23 11:40 47.76509 -17.02272 39824 ft 491 kts 245°
2026-04-23 11:40 47.74204 -17.11839 39813 ft 493 kts 245°
2026-04-23 11:41 47.71882 -17.21434 39815 ft 494 kts 245°
2026-04-23 11:41 47.69564 -17.30969 39818 ft 494 kts 245°
2026-04-23 11:42 47.67223 -17.40561 39807 ft 494 kts 245°
2026-04-23 11:42 47.64875 -17.50138 39808 ft 494 kts 244°
2026-04-23 11:43 47.62518 -17.59709 39798 ft 494 kts 244°
2026-04-23 11:43 47.60171 -17.69202 39784 ft 494 kts 244°
2026-04-23 11:44 47.57802 -17.78743 39784 ft 493 kts 244°
2026-04-23 11:44 47.55424 -17.88277 39772 ft 494 kts 244°
2026-04-23 11:45 47.53439 -17.96208 39768 ft 495 kts 244°
2026-04-23 11:45 47.50651 -18.07296 39758 ft 495 kts 244°
2026-04-23 11:46 47.48243 -18.16830 39751 ft 495 kts 244°
2026-04-23 11:46 47.45824 -18.26368 39750 ft 497 kts 244°
2026-04-23 11:47 47.43803 -18.34310 39732 ft 497 kts 244°
2026-04-23 11:47 47.40964 -18.45413 39726 ft 497 kts 244°
2026-04-23 11:48 47.38514 -18.54955 39729 ft 497 kts 244°
2026-04-23 11:48 47.36472 -18.62878 39712 ft 498 kts 244°
2026-04-23 11:49 47.33997 -18.72440 39719 ft 499 kts 244°
2026-04-23 11:49 47.31515 -18.81993 39709 ft 499 kts 244°
2026-04-23 11:50 47.28622 -18.93080 39691 ft 499 kts 244°
2026-04-23 11:50 47.26546 -19.01001 39694 ft 500 kts 244°
2026-04-23 11:51 47.24030 -19.10567 39687 ft 501 kts 244°
2026-04-23 11:51 47.21505 -19.20127 39677 ft 501 kts 244°
2026-04-23 11:52 47.18972 -19.29677 39675 ft 501 kts 244°
2026-04-23 11:52 47.16428 -19.39225 39661 ft 503 kts 244°
2026-04-23 11:53 47.13892 -19.48714 39650 ft 503 kts 244°
2026-04-23 11:53 47.11328 -19.58263 39649 ft 503 kts 244°
2026-04-23 11:54 47.08756 -19.67804 39643 ft 503 kts 244°
2026-04-23 11:54 47.06173 -19.77346 39616 ft 504 kts 244°
2026-04-23 11:55 47.03599 -19.86822 39619 ft 504 kts 244°
2026-04-23 11:55 47.01003 -19.96357 39610 ft 504 kts 246°
2026-04-23 11:56 46.99639 -20.06512 39612 ft 515 kts 261°
2026-04-23 11:56 46.99053 -20.16973 39602 ft 515 kts 261°
2026-04-23 11:57 46.98466 -20.27330 39588 ft 514 kts 261°
2026-04-23 11:57 46.97858 -20.37754 39589 ft 514 kts 261°
2026-04-23 11:58 46.97249 -20.48170 39575 ft 514 kts 261°
2026-04-23 11:58 46.96623 -20.58591 39556 ft 513 kts 261°
2026-04-23 11:59 46.95999 -20.68916 39555 ft 513 kts 260°
2026-04-23 11:59 46.95358 -20.79314 39542 ft 513 kts 260°
2026-04-23 12:00 46.94709 -20.89709 39545 ft 513 kts 260°
2026-04-23 12:00 46.94050 -21.00093 39529 ft 512 kts 260°
2026-04-23 12:01 46.93387 -21.10396 39527 ft 512 kts 260°
2026-04-23 12:01 46.92710 -21.20765 39528 ft 512 kts 260°
2026-04-23 12:02 46.92025 -21.31133 39513 ft 512 kts 259°
2026-04-23 12:02 46.91327 -21.41497 39501 ft 512 kts 260°
2026-04-23 12:03 46.90628 -21.51807 39500 ft 513 kts 260°
2026-04-23 12:03 46.89913 -21.62177 39481 ft 513 kts 260°
2026-04-23 12:04 46.89189 -21.72545 39484 ft 513 kts 259°
2026-04-23 12:04 46.88455 -21.82917 39463 ft 512 kts 260°
2026-04-23 12:05 46.87713 -21.93266 39449 ft 512 kts 260°
2026-04-23 12:05 46.86966 -22.03527 39449 ft 511 kts 260°
2026-04-23 12:06 46.86211 -22.13843 39432 ft 510 kts 260°
2026-04-23 12:06 46.85055 -22.29317 39416 ft 511 kts 258°
2026-04-23 12:07 46.84275 -22.39570 39417 ft 511 kts 259°
2026-04-23 12:07 46.83484 -22.49893 39400 ft 512 kts 260°
2026-04-23 12:08 46.82680 -22.60245 39382 ft 514 kts 260°
2026-04-23 12:08 46.81865 -22.70604 39390 ft 513 kts 259°
2026-04-23 12:09 46.81043 -22.80949 39364 ft 513 kts 259°
2026-04-23 12:09 46.80219 -22.91223 39355 ft 513 kts 259°
2026-04-23 12:10 46.79373 -23.01560 39340 ft 513 kts 260°
2026-04-23 12:10 46.78526 -23.11901 39333 ft 513 kts 259°
2026-04-23 12:11 46.77665 -23.22237 39335 ft 513 kts 259°
2026-04-23 12:11 46.76799 -23.32503 39324 ft 513 kts 260°
2026-04-23 12:12 46.75922 -23.42835 39314 ft 513 kts 259°
2026-04-23 12:12 46.75036 -23.53144 39319 ft 512 kts 259°
2026-04-23 12:13 46.74139 -23.63447 39309 ft 512 kts 260°
2026-04-23 12:13 46.73240 -23.73684 39308 ft 513 kts 259°
2026-04-23 12:14 46.72325 -23.83989 39309 ft 513 kts 260°
2026-04-23 12:14 46.71403 -23.94286 39311 ft 512 kts 260°
2026-04-23 12:15 46.70471 -24.04558 39307 ft 511 kts 260°
2026-04-23 12:15 46.69538 -24.14758 39306 ft 512 kts 259°
2026-04-23 12:16 46.68584 -24.25057 39303 ft 514 kts 260°
2026-04-23 12:16 46.67625 -24.35349 39305 ft 512 kts 260°
2026-04-23 12:17 46.66654 -24.45628 39305 ft 512 kts 260°
2026-04-23 12:17 46.65682 -24.55837 39314 ft 513 kts 260°
2026-04-23 12:18 46.64693 -24.66115 39314 ft 513 kts 260°
2026-04-23 12:18 46.63699 -24.76360 39314 ft 510 kts 260°
2026-04-23 12:19 46.62697 -24.86569 39311 ft 509 kts 260°
2026-04-23 12:19 46.61696 -24.96695 39312 ft 509 kts 260°
2026-04-23 12:20 46.60677 -25.06885 39317 ft 509 kts 260°
2026-04-23 12:20 46.59654 -25.17047 39315 ft 507 kts 260°
2026-04-23 12:21 46.58621 -25.27194 39315 ft 508 kts 260°
2026-04-23 12:21 46.57579 -25.37352 39323 ft 509 kts 260°
2026-04-23 12:22 46.56531 -25.47460 39327 ft 510 kts 260°
2026-04-23 12:22 46.55467 -25.57648 39336 ft 510 kts 260°
2026-04-23 12:23 46.54392 -25.67843 39335 ft 510 kts 260°
2026-04-23 12:23 46.53319 -25.77937 39339 ft 508 kts 260°
2026-04-23 12:24 46.52230 -25.88076 39348 ft 508 kts 260°
2026-04-23 12:24 46.51136 -25.98189 39348 ft 507 kts 260°
2026-04-23 12:25 46.50034 -26.08293 39356 ft 507 kts 259°
2026-04-23 12:25 46.48930 -26.18324 39368 ft 507 kts 259°
2026-04-23 12:26 46.47808 -26.28423 39364 ft 506 kts 260°
2026-04-23 12:26 46.46687 -26.38458 39366 ft 503 kts 260°
2026-04-23 12:27 46.45557 -26.48459 39364 ft 503 kts 260°
2026-04-23 12:27 46.44428 -26.58397 39372 ft 503 kts 260°
2026-04-23 12:28 46.43279 -26.68408 39379 ft 503 kts 260°
2026-04-23 12:28 46.42130 -26.78361 39372 ft 500 kts 260°
2026-04-23 12:29 46.40971 -26.88307 39375 ft 500 kts 260°
2026-04-23 12:29 46.39812 -26.98181 39383 ft 500 kts 260°
2026-04-23 12:30 46.38636 -27.08114 39383 ft 500 kts 260°
2026-04-23 12:30 46.37458 -27.18001 39384 ft 497 kts 260°
2026-04-23 12:31 46.36270 -27.27890 39385 ft 498 kts 260°
2026-04-23 12:31 46.35081 -27.37710 39388 ft 500 kts 260°
2026-04-23 12:32 46.33876 -27.47589 39386 ft 498 kts 260°
2026-04-23 12:32 46.32664 -27.57452 39390 ft 497 kts 261°
2026-04-23 12:33 46.31445 -27.67297 39392 ft 499 kts 261°
2026-04-23 12:33 46.30224 -27.77091 39393 ft 498 kts 260°
2026-04-23 12:34 46.28985 -27.86954 39390 ft 497 kts 261°
2026-04-23 12:34 46.27741 -27.96785 39391 ft 497 kts 261°
2026-04-23 12:35 46.26489 -28.06609 39393 ft 497 kts 260°
2026-04-23 12:35 46.25227 -28.16438 39395 ft 497 kts 261°
2026-04-23 12:36 46.23965 -28.26197 39396 ft 497 kts 261°
2026-04-23 12:36 46.22690 -28.36001 39402 ft 497 kts 261°
2026-04-23 12:37 46.21406 -28.45789 39404 ft 496 kts 260°
2026-04-23 12:37 46.20113 -28.55584 39399 ft 496 kts 260°
2026-04-23 12:38 46.18821 -28.65300 39391 ft 496 kts 260°
2026-04-23 12:38 46.17516 -28.75055 39412 ft 495 kts 260°
2026-04-23 12:39 46.16202 -28.84805 39408 ft 495 kts 260°
2026-04-23 12:39 46.14879 -28.94551 39415 ft 495 kts 260°
2026-04-23 12:40 46.13548 -29.04299 39417 ft 496 kts 260°
2026-04-23 12:40 46.12217 -29.13974 39425 ft 495 kts 260°
2026-04-23 12:41 46.10870 -29.23710 39433 ft 495 kts 260°
2026-04-23 12:41 46.09514 -29.33441 39432 ft 496 kts 260°
2026-04-23 12:42 46.08159 -29.43106 39432 ft 496 kts 260°
2026-04-23 12:42 46.06786 -29.52830 39440 ft 495 kts 260°
2026-04-23 12:43 46.05405 -29.62549 39430 ft 495 kts 260°
2026-04-23 12:43 46.04017 -29.72259 39446 ft 495 kts 259°
2026-04-23 12:44 46.02620 -29.81965 39440 ft 495 kts 259°
2026-04-23 12:44 46.01228 -29.91575 39439 ft 493 kts 260°
2026-04-23 12:45 45.99933 -30.01245 39456 ft 490 kts 268°
2026-04-23 12:45 45.99389 -30.11024 39453 ft 492 kts 266°
2026-04-23 12:46 45.98833 -30.20843 39463 ft 493 kts 267°
2026-04-23 12:46 45.98278 -30.30583 39445 ft 491 kts 266°
2026-04-23 12:47 45.97708 -30.40353 39455 ft 490 kts 266°
2026-04-23 12:47 45.97134 -30.50111 39456 ft 490 kts 266°
2026-04-23 12:48 45.96548 -30.59871 39457 ft 490 kts 266°
2026-04-23 12:48 45.95959 -30.69575 39457 ft 490 kts 266°
2026-04-23 12:49 45.95359 -30.79311 39462 ft 489 kts 266°
2026-04-23 12:49 45.94752 -30.89038 39474 ft 489 kts 266°
2026-04-23 12:50 45.94136 -30.98759 39470 ft 488 kts 266°
2026-04-23 12:50 45.93517 -31.08408 39474 ft 488 kts 266°
2026-04-23 12:51 45.92886 -31.18100 39480 ft 487 kts 266°
2026-04-23 12:51 45.92249 -31.27771 39485 ft 486 kts 266°
2026-04-23 12:52 45.91604 -31.37433 39493 ft 486 kts 266°
2026-04-23 12:52 45.90955 -31.47037 39495 ft 488 kts 266°
2026-04-23 12:53 45.90289 -31.56743 39503 ft 487 kts 266°
2026-04-23 12:53 45.89621 -31.66389 39499 ft 484 kts 266°
2026-04-23 12:54 45.88946 -31.76005 39503 ft 484 kts 266°
2026-04-23 12:54 45.88268 -31.85553 39503 ft 484 kts 266°
2026-04-23 12:55 45.87577 -31.95167 39516 ft 484 kts 266°
2026-04-23 12:55 45.86879 -32.04753 39522 ft 482 kts 266°
2026-04-23 12:56 45.86176 -32.14312 39522 ft 482 kts 266°
2026-04-23 12:56 45.85469 -32.23806 39534 ft 482 kts 266°
2026-04-23 12:57 45.84749 -32.33363 39533 ft 482 kts 266°
2026-04-23 12:57 45.84022 -32.42910 39536 ft 481 kts 266°
2026-04-23 12:58 45.83287 -32.52450 39541 ft 481 kts 266°
2026-04-23 12:58 45.82549 -32.61927 39551 ft 482 kts 266°
2026-04-23 12:59 45.81796 -32.71488 39555 ft 483 kts 266°
2026-04-23 12:59 45.81036 -32.81042 39543 ft 483 kts 266°
2026-04-23 13:00 45.80271 -32.90557 39571 ft 479 kts 266°
2026-04-23 13:00 45.79501 -33.00036 39578 ft 479 kts 266°
2026-04-23 13:01 45.78728 -33.09449 39581 ft 479 kts 266°
2026-04-23 13:01 45.77941 -33.18933 39586 ft 480 kts 266°
2026-04-23 13:02 45.77146 -33.28410 39588 ft 477 kts 266°
2026-04-23 13:02 45.76349 -33.37830 39590 ft 476 kts 266°
2026-04-23 13:03 45.75548 -33.47205 39591 ft 479 kts 266°
2026-04-23 13:03 45.74729 -33.56677 39606 ft 480 kts 266°
2026-04-23 13:04 45.73903 -33.66148 39607 ft 480 kts 266°
2026-04-23 13:04 45.73066 -33.75657 39623 ft 484 kts 265°
2026-04-23 13:05 45.72220 -33.85166 39623 ft 486 kts 265°
2026-04-23 13:05 45.71360 -33.94753 39629 ft 485 kts 265°
2026-04-23 13:06 45.70055 -34.09104 39623 ft 484 kts 265°
2026-04-23 13:07 45.69183 -34.18590 39622 ft 480 kts 265°
2026-04-23 13:07 45.68313 -34.27982 39631 ft 480 kts 265°
2026-04-23 13:08 45.67426 -34.37440 39632 ft 480 kts 265°
2026-04-23 13:08 45.66533 -34.46898 39641 ft 480 kts 265°
2026-04-23 13:09 45.65633 -34.56331 39640 ft 477 kts 265°
2026-04-23 13:09 45.64736 -34.65658 39648 ft 477 kts 265°
2026-04-23 13:10 45.63825 -34.75050 39657 ft 477 kts 265°
2026-04-23 13:10 45.62905 -34.84449 39661 ft 478 kts 265°
2026-04-23 13:11 45.61976 -34.93850 39675 ft 476 kts 265°
2026-04-23 13:11 45.61047 -35.03177 39670 ft 474 kts 265°
2026-04-23 13:12 45.60118 -35.12429 39674 ft 474 kts 265°
2026-04-23 13:12 45.59175 -35.21741 39675 ft 474 kts 265°
2026-04-23 13:13 45.58223 -35.31061 39684 ft 476 kts 265°
2026-04-23 13:13 45.57262 -35.40390 39681 ft 473 kts 265°
2026-04-23 13:14 45.56306 -35.49608 39689 ft 473 kts 265°
2026-04-23 13:14 45.55334 -35.58887 39694 ft 473 kts 265°
2026-04-23 13:15 45.54355 -35.68168 39691 ft 473 kts 264°
2026-04-23 13:15 45.53368 -35.77445 39706 ft 472 kts 264°
2026-04-23 13:16 45.52377 -35.86686 39703 ft 471 kts 264°
2026-04-23 13:16 45.51386 -35.95860 39711 ft 471 kts 264°
2026-04-23 13:17 45.50381 -36.05094 39711 ft 471 kts 264°
2026-04-23 13:17 45.49368 -36.14325 39714 ft 471 kts 264°
2026-04-23 13:18 45.48350 -36.23519 39714 ft 468 kts 264°
2026-04-23 13:18 45.47329 -36.32696 39721 ft 470 kts 264°
2026-04-23 13:19 45.46301 -36.41851 39732 ft 472 kts 264°
2026-04-23 13:19 45.45256 -36.51086 39735 ft 472 kts 264°
2026-04-23 13:20 45.44207 -36.60287 39740 ft 469 kts 264°
2026-04-23 13:20 45.43159 -36.69423 39731 ft 467 kts 264°
2026-04-23 13:21 45.42112 -36.78481 39736 ft 467 kts 264°
2026-04-23 13:21 45.41049 -36.87602 39738 ft 467 kts 264°
2026-04-23 13:22 45.39979 -36.96724 39743 ft 467 kts 264°
2026-04-23 13:22 45.38904 -37.05825 39747 ft 466 kts 264°
2026-04-23 13:23 45.37831 -37.14841 39752 ft 465 kts 263°
2026-04-23 13:23 45.36741 -37.23946 39758 ft 468 kts 263°
2026-04-23 13:24 45.35637 -37.33086 39763 ft 470 kts 263°
2026-04-23 13:24 45.34526 -37.42232 39749 ft 469 kts 263°
2026-04-23 13:25 45.33411 -37.51343 39767 ft 468 kts 263°
2026-04-23 13:25 45.32298 -37.60380 39770 ft 467 kts 263°
2026-04-23 13:26 45.31170 -37.69474 39762 ft 467 kts 263°
2026-04-23 13:26 45.30035 -37.78563 39768 ft 467 kts 263°
2026-04-23 13:27 45.28893 -37.87646 39767 ft 467 kts 263°
2026-04-23 13:27 45.27752 -37.96664 39776 ft 467 kts 263°
2026-04-23 13:28 45.26597 -38.05734 39780 ft 467 kts 263°
2026-04-23 13:28 45.25432 -38.14815 39786 ft 468 kts 263°
2026-04-23 13:29 45.24257 -38.23924 39786 ft 470 kts 262°
2026-04-23 13:29 45.23069 -38.33064 39787 ft 472 kts 262°
2026-04-23 13:30 45.21881 -38.42142 39794 ft 470 kts 262°
2026-04-23 13:30 45.20683 -38.51248 39788 ft 469 kts 262°
2026-04-23 13:31 45.19480 -38.60323 39783 ft 468 kts 262°
2026-04-23 13:31 45.18274 -38.69376 39791 ft 468 kts 261°
2026-04-23 13:32 45.17066 -38.78376 39794 ft 469 kts 261°
2026-04-23 13:32 45.15839 -38.87461 39801 ft 470 kts 261°
2026-04-23 13:33 45.14602 -38.96564 39806 ft 471 kts 261°
2026-04-23 13:33 45.13356 -39.05684 39806 ft 473 kts 261°
2026-04-23 13:34 45.12094 -39.14848 39805 ft 475 kts 261°
2026-04-23 13:34 45.10834 -39.23950 39810 ft 474 kts 261°
2026-04-23 13:35 45.09562 -39.33084 39804 ft 472 kts 260°
2026-04-23 13:35 45.08286 -39.42187 39808 ft 471 kts 260°
2026-04-23 13:36 45.07000 -39.51306 39821 ft 475 kts 260°
2026-04-23 13:36 45.05705 -39.60430 39824 ft 477 kts 260°
2026-04-23 13:37 45.04393 -39.69625 39831 ft 477 kts 260°
2026-04-23 13:37 45.03074 -39.78807 39825 ft 476 kts 260°
2026-04-23 13:38 45.01751 -39.87974 39819 ft 476 kts 259°
2026-04-23 13:38 45.00423 -39.97098 39831 ft 479 kts 259°
2026-04-23 13:39 44.99652 -40.06423 39827 ft 479 kts 265°
2026-04-23 13:39 44.99116 -40.15808 39836 ft 479 kts 266°
2026-04-23 13:40 44.98588 -40.25191 39834 ft 479 kts 265°
2026-04-23 13:40 44.98049 -40.34491 39833 ft 478 kts 265°
2026-04-23 13:41 44.97504 -40.43820 39820 ft 476 kts 265°
2026-04-23 13:41 44.96951 -40.53125 39820 ft 476 kts 265°
2026-04-23 13:42 44.96391 -40.62450 39830 ft 477 kts 265°
2026-04-23 13:42 44.95823 -40.71753 39835 ft 480 kts 264°
2026-04-23 13:43 44.95242 -40.81151 39827 ft 481 kts 264°
2026-04-23 13:43 44.94654 -40.90539 39826 ft 480 kts 264°
2026-04-23 13:44 44.94060 -40.99906 39830 ft 479 kts 264°
2026-04-23 13:44 44.93462 -41.09202 39821 ft 478 kts 264°
2026-04-23 13:45 44.92952 -41.17036 39827 ft 478 kts 264°
2026-04-23 13:45 44.92236 -41.27905 39818 ft 480 kts 263°
2026-04-23 13:46 44.91608 -41.37299 39829 ft 482 kts 263°
2026-04-23 13:46 44.90975 -41.46658 39824 ft 483 kts 263°
2026-04-23 13:47 44.90330 -41.56081 39824 ft 482 kts 263°
2026-04-23 13:47 44.89679 -41.65488 39816 ft 482 kts 263°
2026-04-23 13:48 44.89019 -41.74886 39817 ft 481 kts 263°
2026-04-23 13:48 44.88354 -41.84259 39814 ft 480 kts 263°
2026-04-23 13:49 44.87687 -41.93553 39811 ft 479 kts 263°
2026-04-23 13:49 44.87008 -42.02899 39809 ft 481 kts 263°
2026-04-23 13:50 44.86316 -42.12318 39822 ft 484 kts 263°
2026-04-23 13:50 44.85614 -42.21769 39807 ft 484 kts 262°
2026-04-23 13:51 44.84910 -42.31134 39811 ft 483 kts 262°
2026-04-23 13:51 44.84195 -42.40539 39811 ft 483 kts 262°
2026-04-23 13:52 44.83473 -42.49934 39804 ft 482 kts 262°
2026-04-23 13:52 44.82746 -42.59306 39795 ft 480 kts 262°
2026-04-23 13:53 44.82011 -42.68659 39800 ft 481 kts 262°
2026-04-23 13:53 44.81274 -42.77959 39795 ft 482 kts 262°
2026-04-23 13:54 44.80521 -42.87339 39793 ft 482 kts 262°
2026-04-23 13:54 44.79761 -42.96720 39794 ft 482 kts 262°
2026-04-23 13:55 44.78994 -43.06098 39792 ft 483 kts 261°
2026-04-23 13:55 44.78221 -43.15443 39788 ft 484 kts 261°
2026-04-23 13:56 44.77436 -43.24852 39782 ft 484 kts 261°
2026-04-23 13:56 44.76643 -43.34239 39773 ft 483 kts 261°
2026-04-23 13:57 44.75842 -43.43635 39767 ft 484 kts 261°
2026-04-23 13:57 44.75036 -43.53000 39769 ft 487 kts 261°
2026-04-23 13:58 44.74214 -43.62468 39766 ft 488 kts 261°
2026-04-23 13:58 44.73384 -43.71921 39767 ft 487 kts 261°
2026-04-23 13:59 44.72554 -43.81295 39759 ft 486 kts 261°
2026-04-23 13:59 44.71712 -43.90710 39761 ft 485 kts 260°
2026-04-23 14:00 44.71005 -43.98535 39762 ft 485 kts 260°
2026-04-23 14:00 44.70002 -44.09551 39762 ft 487 kts 260°
2026-04-23 14:01 44.69139 -44.18935 39764 ft 488 kts 260°
2026-04-23 14:01 44.68261 -44.28390 39767 ft 488 kts 260°
2026-04-23 14:02 44.67376 -44.37834 39779 ft 487 kts 260°
2026-04-23 14:02 44.66486 -44.47254 39782 ft 487 kts 260°
2026-04-23 14:03 44.65593 -44.56614 39788 ft 487 kts 260°
2026-04-23 14:03 44.64686 -44.66031 39790 ft 486 kts 259°
2026-04-23 14:04 44.63773 -44.75438 39797 ft 487 kts 259°
2026-04-23 14:04 44.62852 -44.84839 39787 ft 485 kts 259°
2026-04-23 14:05 44.61931 -44.94165 39815 ft 486 kts 258°
2026-04-23 14:05 44.60996 -45.03552 39816 ft 487 kts 258°
2026-04-23 14:06 44.60051 -45.12950 39809 ft 485 kts 259°
2026-04-23 14:06 44.59100 -45.22333 39836 ft 485 kts 258°
2026-04-23 14:07 44.58147 -45.31657 39820 ft 487 kts 258°
2026-04-23 14:07 44.56687 -45.45801 39835 ft 490 kts 258°
2026-04-23 14:08 44.55703 -45.55232 39838 ft 488 kts 258°
2026-04-23 14:08 44.54712 -45.64653 39842 ft 488 kts 258°
2026-04-23 14:09 44.53720 -45.74004 39844 ft 489 kts 258°
2026-04-23 14:09 44.52713 -45.83419 39850 ft 488 kts 258°
2026-04-23 14:10 44.51698 -45.92838 39856 ft 489 kts 258°
2026-04-23 14:10 44.50684 -46.02181 39864 ft 489 kts 258°
2026-04-23 14:11 44.49651 -46.11613 39873 ft 490 kts 258°
2026-04-23 14:11 44.48610 -46.21052 39862 ft 490 kts 257°
2026-04-23 14:12 44.47562 -46.30474 39872 ft 490 kts 258°
2026-04-23 14:12 44.46512 -46.39837 39868 ft 490 kts 258°
2026-04-23 14:13 44.45448 -46.49267 39876 ft 490 kts 257°
2026-04-23 14:13 44.44376 -46.58682 39880 ft 490 kts 257°
2026-04-23 14:14 44.43297 -46.68094 39879 ft 491 kts 257°
2026-04-23 14:14 44.42214 -46.77472 39881 ft 492 kts 257°
2026-04-23 14:15 44.41114 -46.86929 39891 ft 493 kts 257°
2026-04-23 14:15 44.40005 -46.96379 39892 ft 492 kts 257°
2026-04-23 14:16 44.38889 -47.05831 39892 ft 493 kts 257°
2026-04-23 14:16 44.37765 -47.15283 39892 ft 493 kts 257°
2026-04-23 14:17 44.36640 -47.24664 39902 ft 493 kts 257°
2026-04-23 14:17 44.35501 -47.34096 39904 ft 493 kts 257°
2026-04-23 14:18 44.34350 -47.43563 39914 ft 495 kts 257°
2026-04-23 14:18 44.33192 -47.53022 39909 ft 493 kts 257°
2026-04-23 14:19 44.32037 -47.62382 39911 ft 492 kts 257°
2026-04-23 14:19 44.30867 -47.71806 39913 ft 493 kts 256°
2026-04-23 14:20 44.29688 -47.81231 39919 ft 493 kts 256°
2026-04-23 14:20 44.28500 -47.90664 39920 ft 493 kts 256°
2026-04-23 14:21 44.27315 -48.00009 39917 ft 492 kts 256°
2026-04-23 14:21 44.26111 -48.09435 39924 ft 495 kts 256°
2026-04-23 14:22 44.24895 -48.18898 39930 ft 496 kts 256°
2026-04-23 14:22 44.23671 -48.28353 39931 ft 494 kts 256°
2026-04-23 14:23 44.22454 -48.37695 39919 ft 492 kts 256°
2026-04-23 14:23 44.21225 -48.47061 39916 ft 491 kts 256°
2026-04-23 14:24 44.19988 -48.56428 39928 ft 492 kts 256°
2026-04-23 14:24 44.18742 -48.65801 39945 ft 492 kts 256°
2026-04-23 14:25 44.17485 -48.75194 39934 ft 493 kts 256°
2026-04-23 14:25 44.16235 -48.84482 39937 ft 490 kts 256°
2026-04-23 14:26 44.14971 -48.93796 39942 ft 490 kts 256°
2026-04-23 14:26 44.13699 -49.03122 39940 ft 491 kts 256°
2026-04-23 14:27 44.12417 -49.12459 39943 ft 492 kts 256°
2026-04-23 14:27 44.11343 -49.20237 39948 ft 493 kts 256°
2026-04-23 14:28 44.09833 -49.31109 39948 ft 492 kts 256°
2026-04-23 14:28 44.08527 -49.40440 39947 ft 491 kts 256°
2026-04-23 14:29 44.07438 -49.48177 39948 ft 490 kts 255°
2026-04-23 14:29 44.06123 -49.57471 39947 ft 489 kts 255°
2026-04-23 14:30 44.04802 -49.66745 39951 ft 489 kts 256°
2026-04-23 14:30 44.03475 -49.76010 39951 ft 489 kts 255°
2026-04-23 14:31 44.02136 -49.85299 39953 ft 491 kts 255°
2026-04-23 14:31 44.00793 -49.94559 39961 ft 494 kts 255°
2026-04-23 14:32 43.99081 -50.03750 39964 ft 491 kts 248°
2026-04-23 14:32 43.96893 -50.12735 39968 ft 491 kts 248°
2026-04-23 14:33 43.94687 -50.21704 39964 ft 491 kts 248°
2026-04-23 14:33 43.92496 -50.30608 39967 ft 490 kts 248°
2026-04-23 14:34 43.90284 -50.39547 39964 ft 490 kts 248°
2026-04-23 14:34 43.88067 -50.48478 39968 ft 489 kts 248°
2026-04-23 14:35 43.85847 -50.57385 39957 ft 489 kts 248°
2026-04-23 14:35 43.83638 -50.66216 39957 ft 488 kts 248°
2026-04-23 14:36 43.81405 -50.75103 39971 ft 490 kts 248°
2026-04-23 14:36 43.79152 -50.84042 39979 ft 493 kts 248°
2026-04-23 14:37 43.76886 -50.92995 39980 ft 493 kts 248°
2026-04-23 14:37 43.74615 -51.01933 39987 ft 493 kts 248°
2026-04-23 14:38 43.72352 -51.10803 39981 ft 492 kts 248°
2026-04-23 14:38 43.70075 -51.19700 39986 ft 490 kts 248°
2026-04-23 14:39 43.67800 -51.28553 39986 ft 489 kts 248°
2026-04-23 14:39 43.65513 -51.37418 39988 ft 490 kts 248°
2026-04-23 14:40 43.63233 -51.46225 39993 ft 491 kts 248°
2026-04-23 14:40 43.60930 -51.55087 39997 ft 491 kts 248°
2026-04-23 14:41 43.58612 -51.63971 40002 ft 493 kts 248°
2026-04-23 14:41 43.56283 -51.72867 40002 ft 492 kts 248°
2026-04-23 14:42 43.53955 -51.81726 40001 ft 490 kts 248°
2026-04-23 14:42 43.51651 -51.90460 39999 ft 487 kts 248°
2026-04-23 14:43 43.49328 -51.99232 40002 ft 488 kts 248°
2026-04-23 14:43 43.46997 -52.08008 40005 ft 488 kts 248°
2026-04-23 14:44 43.44658 -52.16779 40014 ft 488 kts 248°
2026-04-23 14:44 43.42324 -52.25500 40014 ft 485 kts 248°
2026-04-23 14:45 43.40000 -52.34148 40013 ft 486 kts 248°
2026-04-23 14:45 43.37645 -52.42886 40020 ft 488 kts 248°
2026-04-23 14:46 43.35278 -52.51637 40018 ft 488 kts 248°
2026-04-23 14:46 43.32918 -52.60327 40016 ft 485 kts 248°
2026-04-23 14:47 43.30558 -52.68987 40013 ft 484 kts 248°
2026-04-23 14:47 43.28213 -52.77566 40010 ft 483 kts 248°
2026-04-23 14:48 43.25843 -52.86200 40014 ft 484 kts 248°
2026-04-23 14:48 43.23468 -52.94826 40020 ft 483 kts 248°
2026-04-23 14:49 43.21090 -53.03430 40021 ft 482 kts 248°
2026-04-23 14:49 43.18720 -53.11974 40033 ft 485 kts 248°
2026-04-23 14:50 43.16316 -53.20616 40035 ft 485 kts 248°
2026-04-23 14:50 43.13917 -53.29208 40035 ft 482 kts 248°
2026-04-23 14:51 43.11533 -53.37714 40034 ft 482 kts 248°
2026-04-23 14:51 43.09129 -53.46264 40037 ft 482 kts 248°
2026-04-23 14:52 43.06716 -53.54816 40036 ft 481 kts 248°
2026-04-23 14:52 43.04307 -53.63327 40038 ft 479 kts 248°
2026-04-23 14:53 43.01906 -53.71778 40039 ft 481 kts 248°
2026-04-23 14:53 42.99480 -53.80292 40045 ft 482 kts 248°
2026-04-23 14:54 42.97037 -53.88831 40041 ft 483 kts 248°
2026-04-23 14:54 42.94589 -53.97364 40045 ft 482 kts 248°
2026-04-23 14:55 42.92141 -54.05867 40045 ft 481 kts 247°
2026-04-23 14:55 42.89708 -54.14286 40044 ft 480 kts 247°
2026-04-23 14:56 42.87259 -54.22737 40035 ft 479 kts 247°
2026-04-23 14:56 42.84802 -54.31185 40041 ft 480 kts 247°
2026-04-23 14:57 42.82332 -54.39651 40045 ft 482 kts 247°
2026-04-23 14:57 42.79847 -54.48137 40048 ft 482 kts 247°
2026-04-23 14:58 42.77374 -54.56557 40055 ft 482 kts 247°
2026-04-23 14:58 42.74879 -54.65025 40049 ft 482 kts 247°
2026-04-23 14:59 42.72376 -54.73488 40050 ft 482 kts 247°
2026-04-23 14:59 42.69868 -54.81942 40051 ft 482 kts 247°
2026-04-23 15:00 42.67371 -54.90331 40050 ft 481 kts 247°
2026-04-23 15:00 42.64864 -54.98730 40047 ft 478 kts 247°
2026-04-23 15:01 42.62356 -55.07101 40044 ft 479 kts 247°
2026-04-23 15:01 42.59834 -55.15494 40046 ft 481 kts 247°
2026-04-23 15:02 42.57318 -55.23838 40036 ft 481 kts 247°
2026-04-23 15:02 42.54787 -55.32206 40043 ft 479 kts 247°
2026-04-23 15:03 42.52248 -55.40571 40035 ft 480 kts 247°
2026-04-23 15:03 42.49704 -55.48928 40035 ft 480 kts 247°
2026-04-23 15:04 42.47171 -55.57221 40028 ft 479 kts 247°
2026-04-23 15:04 42.44625 -55.65531 40029 ft 477 kts 247°
2026-04-23 15:05 42.42074 -55.73832 40023 ft 478 kts 247°
2026-04-23 15:05 42.39512 -55.82143 40025 ft 479 kts 247°
2026-04-23 15:06 42.36954 -55.90411 40027 ft 480 kts 247°
2026-04-23 15:06 42.34377 -55.98719 40029 ft 479 kts 247°
2026-04-23 15:07 42.31792 -56.07025 40040 ft 480 kts 247°
2026-04-23 15:07 42.29194 -56.15344 40042 ft 481 kts 247°
2026-04-23 15:08 42.26605 -56.23610 40038 ft 481 kts 247°
2026-04-23 15:09 42.22682 -56.36087 40037 ft 481 kts 247°
2026-04-23 15:09 42.20061 -56.44392 40037 ft 481 kts 247°
2026-04-23 15:10 42.17881 -56.51280 40026 ft 480 kts 247°
2026-04-23 15:10 42.14830 -56.60889 40024 ft 479 kts 247°
2026-04-23 15:11 42.12203 -56.69133 40016 ft 478 kts 246°
2026-04-23 15:11 42.09574 -56.77358 40016 ft 478 kts 246°
2026-04-23 15:12 42.06945 -56.85563 40021 ft 477 kts 246°
2026-04-23 15:12 42.04323 -56.93717 40025 ft 478 kts 246°
2026-04-23 15:13 42.01673 -57.01935 40022 ft 479 kts 246°
2026-04-23 15:13 41.99011 -57.10163 40019 ft 480 kts 246°
2026-04-23 15:14 41.96343 -57.18385 40018 ft 478 kts 246°
2026-04-23 15:14 41.93703 -57.26496 40011 ft 476 kts 246°
2026-04-23 15:15 41.91045 -57.34641 40018 ft 476 kts 246°
2026-04-23 15:15 41.88381 -57.42776 40016 ft 476 kts 246°
2026-04-23 15:16 41.85708 -57.50916 40015 ft 478 kts 246°
2026-04-23 15:16 41.83042 -57.59011 40017 ft 478 kts 246°
2026-04-23 15:17 41.80347 -57.67171 40018 ft 479 kts 246°
2026-04-23 15:17 41.77646 -57.75324 39997 ft 479 kts 246°
2026-04-23 15:18 41.74942 -57.83459 39995 ft 477 kts 246°
2026-04-23 15:18 41.72243 -57.91557 39997 ft 476 kts 246°
2026-04-23 15:19 41.69557 -57.99591 39995 ft 476 kts 246°
2026-04-23 15:19 41.66849 -58.07670 39991 ft 476 kts 246°
2026-04-23 15:20 41.64137 -58.15736 39992 ft 476 kts 246°
2026-04-23 15:20 41.61408 -58.23829 39993 ft 479 kts 246°
2026-04-23 15:21 41.58678 -58.31899 39992 ft 480 kts 246°
2026-04-23 15:21 41.55922 -58.40024 39992 ft 480 kts 246°
2026-04-23 15:22 41.53163 -58.48135 39992 ft 480 kts 246°
2026-04-23 15:22 41.50419 -58.56178 39975 ft 479 kts 246°
2026-04-23 15:23 41.47653 -58.64263 39969 ft 479 kts 246°
2026-04-23 15:23 41.44884 -58.72329 39966 ft 478 kts 246°
2026-04-23 15:24 41.42116 -58.80374 39960 ft 477 kts 246°
2026-04-23 15:24 41.39348 -58.88393 39959 ft 477 kts 246°
2026-04-23 15:25 41.36580 -58.96390 39957 ft 480 kts 246°
2026-04-23 15:25 41.33781 -59.04454 39955 ft 480 kts 246°
2026-04-23 15:26 41.30978 -59.12506 39951 ft 479 kts 246°
2026-04-23 15:26 41.28189 -59.20495 39949 ft 479 kts 246°
2026-04-23 15:27 41.25378 -59.28523 39926 ft 479 kts 246°
2026-04-23 15:27 41.22564 -59.36538 39928 ft 478 kts 246°
2026-04-23 15:28 41.19751 -59.44527 39929 ft 477 kts 246°
2026-04-23 15:28 41.16937 -59.52498 39941 ft 477 kts 246°
2026-04-23 15:29 41.14123 -59.60446 39915 ft 480 kts 246°
2026-04-23 15:29 41.11275 -59.68467 39918 ft 481 kts 246°
2026-04-23 15:30 41.08420 -59.76483 39923 ft 481 kts 246°
2026-04-23 15:30 41.05559 -59.84494 39917 ft 481 kts 246°
2026-04-23 15:31 41.02715 -59.92437 39908 ft 480 kts 246°
2026-04-23 15:31 40.99809 -60.00385 39910 ft 479 kts 240°
2026-04-23 15:32 40.96314 -60.07915 39905 ft 481 kts 240°
2026-04-23 15:32 40.92805 -60.15452 39893 ft 482 kts 240°
2026-04-23 15:33 40.89299 -60.22940 39897 ft 482 kts 240°
2026-04-23 15:33 40.85765 -60.30488 39898 ft 484 kts 240°
2026-04-23 15:34 40.82220 -60.38028 39895 ft 482 kts 240°
2026-04-23 15:34 40.78690 -60.45524 39884 ft 480 kts 240°
2026-04-23 15:35 40.75158 -60.53004 39879 ft 481 kts 240°
2026-04-23 15:35 40.71636 -60.60446 39878 ft 482 kts 240°
2026-04-23 15:36 40.68079 -60.67943 39855 ft 482 kts 240°
2026-04-23 15:36 40.64522 -60.75422 39863 ft 481 kts 240°
2026-04-23 15:37 40.60959 -60.82896 39860 ft 483 kts 240°
2026-04-23 15:37 40.57404 -60.90335 39835 ft 484 kts 240°
2026-04-23 15:38 40.53822 -60.97810 39833 ft 482 kts 240°
2026-04-23 15:38 40.50252 -61.05246 39841 ft 481 kts 240°
2026-04-23 15:39 40.46679 -61.12669 39834 ft 481 kts 240°
2026-04-23 15:39 40.43101 -61.20084 39831 ft 480 kts 240°
2026-04-23 15:40 40.39550 -61.27426 39826 ft 479 kts 240°
2026-04-23 15:40 40.35978 -61.34794 39831 ft 479 kts 240°
2026-04-23 15:41 40.32392 -61.42173 39812 ft 481 kts 240°
2026-04-23 15:41 40.28797 -61.49553 39828 ft 480 kts 240°
2026-04-23 15:42 40.25222 -61.56875 39832 ft 481 kts 240°
2026-04-23 15:42 40.21617 -61.64241 39831 ft 480 kts 240°
2026-04-23 15:43 40.18010 -61.71592 39830 ft 480 kts 240°
2026-04-23 15:43 40.14405 -61.78926 39831 ft 479 kts 240°
2026-04-23 15:44 40.10821 -61.86197 39832 ft 479 kts 240°
2026-04-23 15:44 40.07209 -61.93508 39833 ft 479 kts 240°
2026-04-23 15:45 40.03595 -62.00806 39824 ft 478 kts 240°
2026-04-23 15:45 39.99983 -62.08086 39820 ft 478 kts 240°
2026-04-23 15:46 39.96391 -62.15306 39820 ft 478 kts 240°
2026-04-23 15:46 39.92775 -62.22557 39825 ft 476 kts 240°
2026-04-23 15:47 39.89153 -62.29807 39828 ft 479 kts 240°
2026-04-23 15:47 39.85505 -62.37087 39843 ft 481 kts 240°
2026-04-23 15:48 39.81876 -62.44315 39829 ft 480 kts 240°
2026-04-23 15:48 39.78225 -62.51569 39825 ft 479 kts 241°
2026-04-23 15:49 39.74574 -62.58810 39822 ft 479 kts 241°
2026-04-23 15:49 39.70913 -62.66051 39827 ft 480 kts 241°
2026-04-23 15:50 39.67243 -62.73293 39810 ft 481 kts 241°
2026-04-23 15:50 39.63596 -62.80474 39811 ft 478 kts 241°
2026-04-23 15:51 39.59945 -62.87644 39809 ft 475 kts 241°
2026-04-23 15:51 39.56302 -62.94789 39809 ft 476 kts 241°
2026-04-23 15:52 39.52666 -63.01899 39814 ft 477 kts 241°
2026-04-23 15:52 39.48991 -63.09072 39815 ft 479 kts 241°
2026-04-23 15:53 39.45309 -63.16239 39821 ft 477 kts 241°
2026-04-23 15:53 39.41644 -63.23358 39815 ft 474 kts 241°
2026-04-23 15:54 39.37996 -63.30429 39808 ft 471 kts 241°
2026-04-23 15:54 39.34380 -63.37424 39803 ft 472 kts 241°
2026-04-23 15:55 39.30730 -63.44468 39812 ft 472 kts 241°
2026-04-23 15:55 39.27066 -63.51524 39814 ft 474 kts 241°
2026-04-23 15:56 39.23389 -63.58585 39802 ft 472 kts 241°
2026-04-23 15:56 39.19729 -63.65604 39807 ft 471 kts 241°
2026-04-23 15:57 39.16095 -63.72553 39796 ft 471 kts 241°
2026-04-23 15:57 39.12436 -63.79538 39779 ft 470 kts 241°
2026-04-23 15:58 39.08790 -63.86481 39809 ft 468 kts 241°
2026-04-23 15:58 39.05159 -63.93384 39801 ft 470 kts 241°
2026-04-23 15:59 39.01486 -64.00349 39810 ft 471 kts 241°
2026-04-23 15:59 38.97800 -64.07323 39805 ft 471 kts 241°
2026-04-23 16:00 38.94123 -64.14264 39814 ft 469 kts 241°
2026-04-23 16:00 38.90476 -64.21138 39812 ft 469 kts 241°
2026-04-23 16:01 38.86805 -64.28039 39813 ft 468 kts 241°
2026-04-23 16:01 38.83130 -64.34932 39806 ft 467 kts 241°
2026-04-23 16:02 38.79459 -64.41808 39813 ft 469 kts 241°
2026-04-23 16:02 38.75791 -64.48659 39819 ft 470 kts 241°
2026-04-23 16:03 38.72089 -64.55560 39824 ft 470 kts 241°
2026-04-23 16:03 38.68382 -64.62456 39821 ft 469 kts 241°
2026-04-23 16:04 38.64681 -64.69325 39819 ft 469 kts 241°
2026-04-23 16:04 38.61005 -64.76135 39820 ft 468 kts 241°
2026-04-23 16:05 38.57903 -64.81869 39819 ft 468 kts 241°
2026-04-23 16:05 38.53600 -64.89808 39823 ft 466 kts 241°
2026-04-23 16:06 38.49895 -64.96628 39826 ft 468 kts 241°
2026-04-23 16:06 38.46133 -65.03451 39842 ft 471 kts 240°
2026-04-23 16:07 38.42378 -65.10239 39834 ft 470 kts 241°
2026-04-23 16:07 38.38616 -65.17039 39834 ft 468 kts 241°
2026-04-23 16:08 38.34851 -65.23825 39834 ft 471 kts 241°
2026-04-23 16:08 38.31047 -65.30668 39847 ft 476 kts 240°
2026-04-23 16:09 38.27226 -65.37523 39859 ft 479 kts 240°
2026-04-23 16:09 38.23373 -65.44423 39833 ft 477 kts 240°
2026-04-23 16:10 38.19522 -65.51309 39858 ft 479 kts 240°
2026-04-23 16:10 38.15651 -65.58211 39861 ft 480 kts 240°
2026-04-23 16:11 38.11804 -65.65057 39863 ft 479 kts 240°
2026-04-23 16:11 38.07923 -65.71951 39865 ft 480 kts 240°
2026-04-23 16:12 38.04035 -65.78841 39864 ft 481 kts 240°
2026-04-23 16:12 38.00137 -65.85737 39869 ft 481 kts 240°
2026-04-23 16:13 37.96261 -65.92575 39877 ft 480 kts 240°
2026-04-23 16:13 37.90413 -66.02870 39874 ft 480 kts 240°
2026-04-23 16:14 37.86507 -66.09727 39876 ft 480 kts 240°
2026-04-23 16:14 37.82649 -66.16489 39882 ft 480 kts 240°
2026-04-23 16:15 37.78732 -66.23336 39885 ft 481 kts 240°
2026-04-23 16:15 37.74812 -66.30176 39887 ft 481 kts 240°
2026-04-23 16:16 37.70878 -66.37027 39890 ft 482 kts 240°
2026-04-23 16:16 37.66932 -66.43883 39898 ft 482 kts 240°
2026-04-23 16:17 37.63019 -66.50669 39893 ft 480 kts 240°
2026-04-23 16:17 37.59092 -66.57464 39899 ft 479 kts 240°
2026-04-23 16:18 37.55155 -66.64267 39903 ft 482 kts 240°
2026-04-23 16:18 37.51189 -66.71100 39912 ft 483 kts 240°
2026-04-23 16:19 37.47253 -66.77869 39911 ft 481 kts 240°
2026-04-23 16:19 37.43303 -66.84650 39905 ft 479 kts 240°
2026-04-23 16:20 37.39358 -66.91405 39920 ft 480 kts 240°
2026-04-23 16:20 37.35398 -66.98175 39920 ft 481 kts 240°
2026-04-23 16:21 37.31447 -67.04914 39927 ft 482 kts 240°
2026-04-23 16:21 37.27468 -67.11688 39921 ft 481 kts 240°
2026-04-23 16:22 37.23501 -67.18426 39923 ft 480 kts 240°
2026-04-23 16:22 37.19534 -67.25153 39923 ft 479 kts 240°
2026-04-23 16:23 37.15583 -67.31841 39928 ft 481 kts 240°
2026-04-23 16:23 37.11585 -67.38591 39919 ft 482 kts 239°
2026-04-23 16:24 37.07601 -67.45304 39938 ft 479 kts 239°
2026-04-23 16:24 37.03626 -67.51991 39933 ft 479 kts 239°
2026-04-23 16:25 36.99674 -67.58625 39938 ft 479 kts 239°
2026-04-23 16:25 36.95677 -67.65322 39940 ft 482 kts 239°
2026-04-23 16:26 36.91669 -67.72019 39946 ft 480 kts 239°
2026-04-23 16:26 36.87675 -67.78685 39948 ft 478 kts 239°
2026-04-23 16:27 36.83717 -67.85277 39947 ft 477 kts 239°
2026-04-23 16:27 36.79725 -67.91914 39952 ft 479 kts 239°
2026-04-23 16:28 36.75718 -67.98559 39948 ft 479 kts 239°
2026-04-23 16:28 36.71716 -68.05185 39956 ft 478 kts 239°
2026-04-23 16:29 36.67745 -68.11747 39963 ft 477 kts 239°
2026-04-23 16:29 36.63749 -68.18336 39966 ft 477 kts 239°
2026-04-23 16:30 36.59745 -68.24927 39956 ft 477 kts 239°
2026-04-23 16:30 36.55739 -68.31507 39964 ft 477 kts 239°
2026-04-23 16:31 36.51753 -68.38041 39965 ft 477 kts 239°
2026-04-23 16:31 36.47735 -68.44615 39965 ft 478 kts 239°
2026-04-23 16:32 36.43712 -68.51184 39971 ft 478 kts 239°
2026-04-23 16:32 36.39680 -68.57756 39966 ft 479 kts 239°
2026-04-23 16:33 36.35625 -68.64352 39977 ft 481 kts 239°
2026-04-23 16:33 36.31588 -68.70904 39979 ft 481 kts 239°
2026-04-23 16:34 36.27528 -68.77485 39980 ft 480 kts 239°
2026-04-23 16:34 36.23468 -68.84049 39991 ft 479 kts 239°
2026-04-23 16:35 36.19410 -68.90601 39977 ft 481 kts 239°
2026-04-23 16:35 36.15356 -68.97132 39987 ft 482 kts 238°
2026-04-23 16:36 36.11266 -69.03708 39994 ft 482 kts 238°
2026-04-23 16:36 36.07178 -69.10269 39974 ft 481 kts 238°
2026-04-23 16:37 36.03101 -69.16799 39989 ft 480 kts 238°
2026-04-23 16:37 35.99015 -69.23333 39993 ft 481 kts 238°
2026-04-23 16:38 35.94934 -69.29844 40003 ft 483 kts 238°
2026-04-23 16:38 35.90817 -69.36401 40006 ft 483 kts 238°
2026-04-23 16:39 35.86700 -69.42945 40003 ft 482 kts 238°
2026-04-23 16:39 35.82600 -69.49450 39999 ft 479 kts 238°
2026-04-23 16:40 35.78531 -69.55897 40003 ft 482 kts 238°
2026-04-23 16:40 35.74396 -69.62432 40015 ft 485 kts 238°
2026-04-23 16:41 35.70247 -69.68977 40005 ft 484 kts 238°
2026-04-23 16:41 35.66115 -69.75485 40017 ft 482 kts 238°
2026-04-23 16:42 35.62010 -69.81936 40010 ft 482 kts 238°
2026-04-23 16:42 35.57877 -69.88421 40017 ft 482 kts 238°
2026-04-23 16:43 35.53724 -69.94925 40020 ft 485 kts 238°
2026-04-23 16:43 35.49560 -70.01432 40029 ft 484 kts 238°
2026-04-23 16:44 35.45399 -70.07925 40029 ft 484 kts 238°
2026-04-23 16:44 35.41261 -70.14366 40038 ft 484 kts 237°
2026-04-23 16:45 35.37094 -70.20843 40023 ft 484 kts 237°
2026-04-23 16:45 35.32914 -70.27329 40027 ft 486 kts 237°
2026-04-23 16:46 35.28723 -70.33818 40038 ft 486 kts 237°
2026-04-23 16:46 35.24555 -70.40260 40038 ft 486 kts 237°
2026-04-23 16:47 35.20360 -70.46731 40038 ft 485 kts 237°
2026-04-23 16:47 35.16168 -70.53187 40037 ft 484 kts 237°
2026-04-23 16:48 35.11975 -70.59633 40039 ft 485 kts 237°
2026-04-23 16:48 35.07793 -70.66048 40037 ft 487 kts 237°
2026-04-23 16:49 35.03577 -70.72503 40045 ft 486 kts 237°
2026-04-23 16:49 34.99371 -70.78934 40042 ft 484 kts 237°
2026-04-23 16:50 34.95164 -70.85353 40023 ft 485 kts 237°
2026-04-23 16:50 34.90973 -70.91736 40055 ft 487 kts 237°
2026-04-23 16:51 34.86730 -70.98187 40056 ft 488 kts 237°
2026-04-23 16:51 34.82477 -71.04640 40067 ft 488 kts 237°
2026-04-23 16:52 34.78223 -71.11084 40061 ft 488 kts 237°
2026-04-23 16:52 34.73999 -71.17470 40056 ft 487 kts 236°
2026-04-23 16:53 34.69754 -71.23875 40056 ft 486 kts 236°
2026-04-23 16:53 34.65508 -71.30274 40053 ft 487 kts 236°
2026-04-23 16:54 34.61242 -71.36685 40052 ft 489 kts 236°
2026-04-23 16:54 34.56992 -71.43063 40061 ft 490 kts 236°
2026-04-23 16:55 34.52710 -71.49477 40059 ft 488 kts 236°
2026-04-23 16:55 34.48439 -71.55864 40067 ft 487 kts 236°
2026-04-23 16:56 34.44166 -71.62243 40065 ft 488 kts 236°
2026-04-23 16:56 34.39899 -71.68599 40066 ft 491 kts 236°
2026-04-23 16:57 34.35592 -71.75005 40064 ft 490 kts 236°
2026-04-23 16:57 34.31293 -71.81388 40070 ft 490 kts 236°
2026-04-23 16:58 34.26987 -71.87768 40066 ft 490 kts 236°
2026-04-23 16:58 34.22680 -71.94139 40069 ft 490 kts 236°
2026-04-23 16:59 34.18382 -72.00486 40076 ft 492 kts 236°
2026-04-23 16:59 34.14046 -72.06876 40075 ft 492 kts 236°
2026-04-23 17:00 34.09709 -72.13257 40080 ft 492 kts 235°
2026-04-23 17:00 34.05369 -72.19632 40083 ft 492 kts 235°
2026-04-23 17:01 34.01057 -72.25954 40072 ft 492 kts 235°
2026-04-23 17:01 33.96709 -72.32332 40090 ft 493 kts 236°
2026-04-23 17:02 33.92447 -72.38797 40089 ft 493 kts 236°
2026-04-23 17:02 33.88871 -72.44134 40090 ft 493 kts 235°
2026-04-23 17:03 33.83880 -72.51605 40094 ft 493 kts 236°
2026-04-23 17:03 33.79582 -72.58019 40093 ft 493 kts 236°
2026-04-23 17:04 33.75279 -72.64433 40094 ft 493 kts 236°
2026-04-23 17:04 33.71698 -72.69765 40097 ft 493 kts 235°
2026-04-23 17:05 33.66696 -72.77192 40098 ft 491 kts 235°
2026-04-23 17:05 33.62402 -72.83560 40098 ft 491 kts 235°
2026-04-23 17:06 33.58825 -72.88855 40097 ft 492 kts 235°
2026-04-23 17:06 33.54507 -72.95237 40090 ft 494 kts 235°
2026-04-23 17:07 33.49483 -73.02646 40109 ft 492 kts 235°
2026-04-23 17:07 33.45172 -73.08995 40107 ft 491 kts 235°
2026-04-23 17:08 33.41588 -73.14264 40107 ft 491 kts 235°
2026-04-23 17:08 33.37275 -73.20594 40109 ft 491 kts 235°
2026-04-23 17:09 33.32961 -73.26914 40113 ft 490 kts 234°
2026-04-23 17:09 33.28652 -73.33216 40114 ft 490 kts 234°
2026-04-23 17:10 33.24359 -73.39485 40118 ft 492 kts 234°
2026-04-23 17:10 33.20017 -73.45811 40128 ft 492 kts 234°
2026-04-23 17:11 33.15675 -73.52128 40122 ft 492 kts 234°
2026-04-23 17:11 33.11330 -73.58437 40106 ft 492 kts 234°
2026-04-23 17:12 33.06999 -73.64716 40122 ft 489 kts 234°
2026-04-23 17:12 33.02743 -73.70878 40125 ft 491 kts 234°
2026-04-23 17:13 32.98392 -73.77163 40134 ft 492 kts 234°
2026-04-23 17:13 32.94034 -73.83449 40134 ft 492 kts 234°
2026-04-23 17:14 32.89671 -73.89731 40114 ft 492 kts 234°
2026-04-23 17:14 32.85358 -73.95930 40134 ft 489 kts 234°
2026-04-23 17:15 32.81023 -74.02152 40147 ft 488 kts 234°
2026-04-23 17:15 32.76672 -74.08385 40151 ft 491 kts 234°
2026-04-23 17:16 32.72305 -74.14630 40154 ft 492 kts 234°
2026-04-23 17:16 32.67926 -74.20883 40153 ft 492 kts 234°
2026-04-23 17:17 32.63593 -74.27058 40142 ft 489 kts 234°
2026-04-23 17:17 32.59242 -74.33251 40141 ft 488 kts 234°
2026-04-23 17:18 32.52709 -74.42528 40142 ft 490 kts 233°
2026-04-23 17:19 32.48357 -74.48694 40151 ft 491 kts 233°
2026-04-23 17:19 32.43971 -74.54899 40150 ft 491 kts 233°
2026-04-23 17:20 32.39584 -74.61096 40155 ft 491 kts 233°
2026-04-23 17:21 32.30835 -74.73422 40158 ft 491 kts 233°
2026-04-23 17:21 32.24249 -74.82675 40157 ft 490 kts 233°
2026-04-23 17:22 32.17680 -74.91880 40152 ft 488 kts 233°
2026-04-23 17:23 32.11150 -75.01008 40156 ft 487 kts 233°
2026-04-23 17:24 32.04580 -75.10170 40160 ft 489 kts 233°
2026-04-23 17:24 31.97978 -75.19353 40158 ft 488 kts 233°
2026-04-23 17:25 31.91436 -75.28434 40159 ft 487 kts 233°
2026-04-23 17:26 31.82669 -75.40565 40158 ft 486 kts 233°
2026-04-23 17:27 31.76078 -75.49660 40165 ft 488 kts 233°
2026-04-23 17:27 31.71710 -75.55676 40166 ft 486 kts 233°
2026-04-23 17:28 31.67326 -75.61704 40168 ft 485 kts 233°
2026-04-23 17:28 31.62937 -75.67730 40166 ft 487 kts 232°
2026-04-23 17:29 31.58529 -75.73772 40172 ft 488 kts 232°
2026-04-23 17:30 31.51919 -75.82813 40165 ft 489 kts 232°
2026-04-23 17:30 31.45281 -75.91873 40167 ft 488 kts 232°
2026-04-23 17:31 31.40860 -75.97893 40162 ft 487 kts 232°
2026-04-23 17:31 31.36472 -76.03861 40166 ft 487 kts 232°
2026-04-23 17:32 31.32059 -76.09852 40165 ft 486 kts 232°
2026-04-23 17:32 31.27651 -76.15827 40170 ft 485 kts 232°
2026-04-23 17:33 31.23227 -76.21816 40172 ft 488 kts 232°
2026-04-23 17:33 31.18782 -76.27822 40172 ft 489 kts 232°
2026-04-23 17:34 31.14363 -76.33785 40175 ft 489 kts 232°
2026-04-23 17:35 31.07687 -76.42774 40173 ft 489 kts 232°
2026-04-23 17:35 31.01025 -76.51724 40170 ft 486 kts 232°
2026-04-23 17:36 30.96605 -76.57652 40172 ft 489 kts 232°
2026-04-23 17:36 30.92138 -76.63632 40176 ft 490 kts 232°
2026-04-23 17:37 30.87665 -76.69611 40178 ft 489 kts 232°
2026-04-23 17:38 30.80958 -76.78559 40175 ft 488 kts 232°
2026-04-23 17:38 30.76529 -76.84457 40169 ft 487 kts 232°
2026-04-23 17:39 30.72073 -76.90382 40186 ft 488 kts 232°
2026-04-23 17:39 30.67598 -76.96323 40182 ft 489 kts 232°
2026-04-23 17:40 30.63961 -77.02865 40203 ft 480 kts 250°
2026-04-23 17:40 30.61630 -77.10055 40190 ft 480 kts 252°
2026-04-23 17:41 30.59326 -77.17327 40185 ft 479 kts 251°
2026-04-23 17:41 30.55862 -77.28176 40176 ft 479 kts 251°
2026-04-23 17:42 30.52396 -77.39011 40178 ft 480 kts 251°
2026-04-23 17:43 30.50069 -77.46264 40183 ft 480 kts 251°
2026-04-23 17:43 30.47739 -77.53510 40178 ft 480 kts 251°
2026-04-23 17:44 30.45406 -77.60750 40170 ft 479 kts 251°
2026-04-23 17:44 30.41669 -77.71465 40197 ft 483 kts 242°
2026-04-23 17:45 30.34687 -77.79924 40200 ft 491 kts 218°
2026-04-23 17:46 30.26290 -77.86693 40189 ft 490 kts 218°
2026-04-23 17:46 30.20732 -77.91170 40189 ft 490 kts 218°
2026-04-23 17:47 30.15133 -77.95666 40186 ft 490 kts 218°
2026-04-23 17:48 30.06701 -78.02429 40185 ft 494 kts 218°
2026-04-23 17:48 30.01086 -78.06921 40186 ft 494 kts 218°
2026-04-23 17:49 29.95452 -78.11424 40178 ft 492 kts 218°
2026-04-23 17:49 29.89835 -78.15907 40177 ft 490 kts 218°
2026-04-23 17:50 29.84224 -78.20380 40167 ft 489 kts 218°
2026-04-23 17:50 29.75882 -78.27018 40167 ft 489 kts 218°
2026-04-23 17:51 29.70276 -78.31470 40171 ft 490 kts 218°
2026-04-23 17:52 29.61839 -78.38161 40173 ft 491 kts 218°
2026-04-23 17:52 29.53494 -78.44774 40161 ft 486 kts 218°
2026-04-23 17:53 29.45190 -78.51437 40164 ft 485 kts 220°
2026-04-23 17:54 29.40530 -78.56883 40187 ft 478 kts 238°
2026-04-23 17:54 29.36541 -78.67175 40174 ft 474 kts 252°
2026-04-23 17:55 29.33287 -78.77900 40170 ft 475 kts 252°
2026-04-23 17:56 29.31113 -78.85043 40171 ft 474 kts 252°
2026-04-23 17:56 29.27867 -78.95715 40164 ft 467 kts 252°
2026-04-23 17:57 29.26845 -78.99123 40147 ft 450 kts 252°
2026-04-23 17:57 29.25840 -79.02454 40073 ft 436 kts 252°
2026-04-23 17:57 29.23862 -79.08977 39055 ft 431 kts 252°
2026-04-23 17:58 29.22998 -79.12232 38517 ft 427 kts 255°
2026-04-23 17:58 29.22138 -79.15484 37989 ft 424 kts 251°
2026-04-23 17:58 29.21125 -79.18640 37395 ft 421 kts 251°
2026-04-23 17:58 29.20141 -79.21734 36902 ft 418 kts 251°
2026-04-23 17:59 29.19161 -79.24852 36385 ft 415 kts 252°
2026-04-23 17:59 29.18182 -79.27954 35872 ft 413 kts 251°
2026-04-23 17:59 29.17203 -79.31030 35381 ft 410 kts 251°
2026-04-23 17:59 29.16244 -79.34091 34877 ft 407 kts 252°
2026-04-23 18:00 29.15339 -79.37153 34407 ft 405 kts 253°
2026-04-23 18:00 29.14442 -79.40196 33887 ft 403 kts 252°
2026-04-23 18:00 29.13527 -79.43209 33366 ft 400 kts 252°
2026-04-23 18:00 29.12614 -79.46192 32880 ft 396 kts 252°
2026-04-23 18:01 29.11719 -79.49151 32476 ft 390 kts 252°
2026-04-23 18:01 29.10854 -79.52023 32035 ft 386 kts 252°
2026-04-23 18:01 29.09979 -79.54914 31517 ft 384 kts 252°
2026-04-23 18:01 29.09105 -79.57786 31021 ft 381 kts 252°
2026-04-23 18:02 29.08240 -79.60641 30535 ft 379 kts 252°
2026-04-23 18:02 29.07381 -79.63481 30009 ft 377 kts 252°
2026-04-23 18:02 29.06526 -79.66300 29502 ft 374 kts 252°
2026-04-23 18:02 29.05677 -79.69093 28994 ft 370 kts 252°
2026-04-23 18:03 29.04838 -79.71855 28495 ft 367 kts 252°
2026-04-23 18:03 29.04005 -79.74594 28004 ft 363 kts 252°
2026-04-23 18:03 29.03190 -79.77274 27524 ft 360 kts 252°
2026-04-23 18:03 29.02371 -79.79962 27045 ft 357 kts 252°
2026-04-23 18:04 29.01558 -79.82627 26560 ft 354 kts 252°
2026-04-23 18:04 29.00751 -79.85272 26092 ft 351 kts 252°
2026-04-23 18:04 28.99951 -79.87891 25630 ft 348 kts 252°
2026-04-23 18:04 28.99157 -79.90491 25173 ft 345 kts 252°
2026-04-23 18:05 28.98369 -79.93066 24714 ft 342 kts 253°
2026-04-23 18:05 28.97587 -79.95622 24264 ft 339 kts 253°
2026-04-23 18:05 28.96821 -79.98122 23851 ft 336 kts 253°
2026-04-23 18:05 28.96055 -80.00622 23418 ft 331 kts 253°
2026-04-23 18:06 28.95301 -80.03079 23030 ft 326 kts 253°
2026-04-23 18:06 28.94551 -80.05525 22653 ft 327 kts 252°
2026-04-23 18:06 28.93796 -80.07983 22276 ft 329 kts 252°
2026-04-23 18:06 28.93039 -80.10444 21900 ft 327 kts 252°
2026-04-23 18:07 28.92292 -80.12870 21518 ft 322 kts 252°
2026-04-23 18:07 28.91549 -80.15285 21147 ft 323 kts 252°
2026-04-23 18:07 28.90801 -80.17715 20785 ft 325 kts 252°
2026-04-23 18:07 28.90063 -80.20107 20408 ft 322 kts 252°
2026-04-23 18:08 28.89562 -80.21728 20149 ft 319 kts 252°
2026-04-23 18:08 28.88588 -80.24884 19677 ft 318 kts 252°
2026-04-23 18:08 28.87853 -80.27264 19305 ft 319 kts 252°
2026-04-23 18:08 28.87116 -80.29648 18936 ft 316 kts 252°
2026-04-23 18:09 28.86389 -80.31995 18574 ft 312 kts 252°
2026-04-23 18:09 28.85447 -80.34225 18200 ft 316 kts 236°
2026-04-23 18:09 28.84053 -80.36176 17834 ft 319 kts 230°
2026-04-23 18:09 28.82574 -80.37983 17491 ft 313 kts 228°
2026-04-23 18:10 28.81066 -80.39754 17170 ft 312 kts 227°
2026-04-23 18:10 28.79544 -80.41526 16847 ft 314 kts 227°
2026-04-23 18:10 28.78020 -80.43303 16510 ft 311 kts 227°
2026-04-23 18:10 28.76519 -80.45058 15997 ft 310 kts 227°
2026-04-23 18:11 28.75038 -80.46797 15716 ft 305 kts 227°
2026-04-23 18:11 28.73557 -80.48543 15462 ft 306 kts 227°
2026-04-23 18:11 28.72094 -80.50273 15471 ft 303 kts 227°
2026-04-23 18:11 28.70636 -80.52001 15278 ft 307 kts 227°
2026-04-23 18:12 28.69182 -80.53727 14967 ft 302 kts 227°
2026-04-23 18:12 28.67724 -80.55459 14656 ft 303 kts 227°
2026-04-23 18:12 28.66276 -80.57174 14335 ft 297 kts 228°
2026-04-23 18:12 28.64842 -80.58866 14019 ft 297 kts 227°
2026-04-23 18:13 28.63251 -80.60369 13694 ft 299 kts 216°
2026-04-23 18:13 28.61515 -80.61659 13405 ft 295 kts 213°
2026-04-23 18:13 28.59774 -80.62858 13148 ft 292 kts 213°
2026-04-23 18:13 28.58046 -80.64031 12882 ft 293 kts 212°
2026-04-23 18:14 28.56303 -80.65225 12613 ft 290 kts 212°
2026-04-23 18:14 28.54580 -80.66412 12364 ft 289 kts 212°
2026-04-23 18:14 28.52862 -80.67607 12104 ft 288 kts 212°
2026-04-23 18:14 28.51156 -80.68810 11873 ft 288 kts 212°
2026-04-23 18:15 28.49499 -80.69989 11597 ft 278 kts 212°
2026-04-23 18:15 28.47802 -80.71210 11266 ft 293 kts 212°
2026-04-23 18:15 28.46101 -80.72451 10831 ft 288 kts 212°
2026-04-23 18:15 28.44438 -80.73685 10407 ft 283 kts 212°
2026-04-23 18:16 28.42815 -80.74917 9979 ft 278 kts 212°
2026-04-23 18:16 28.41242 -80.76127 9505 ft 275 kts 213°
2026-04-23 18:16 28.39667 -80.77345 9053 ft 274 kts 212°
2026-04-23 18:17 28.36556 -80.79788 8140 ft 271 kts 213°
2026-04-23 18:17 28.35008 -80.81003 7682 ft 269 kts 213°
2026-04-23 18:17 28.33479 -80.82194 7244 ft 264 kts 213°
2026-04-23 18:17 28.31973 -80.83361 6803 ft 258 kts 213°
2026-04-23 18:18 28.30515 -80.84490 6354 ft 251 kts 213°
2026-04-23 18:18 28.29074 -80.85606 5883 ft 251 kts 213°
2026-04-23 18:18 28.27642 -80.86733 5428 ft 250 kts 213°
2026-04-23 18:18 28.26244 -80.87849 4986 ft 249 kts 212°
2026-04-23 18:19 28.24761 -80.88838 4525 ft 246 kts 201°
2026-04-23 18:19 28.23182 -80.89569 4058 ft 245 kts 198°
2026-04-23 18:19 28.21593 -80.90232 3604 ft 240 kts 189°
2026-04-23 18:19 28.19947 -80.90346 3160 ft 236 kts 174°
2026-04-23 18:20 28.18303 -80.90260 2723 ft 237 kts 174°
2026-04-23 18:20 28.16659 -80.90137 2277 ft 235 kts 173°
2026-04-23 18:20 28.15027 -80.90025 1825 ft 236 kts 173°
2026-04-23 18:20 28.13466 -80.89735 1565 ft 221 kts 148°
2026-04-23 18:21 28.12406 -80.88647 1586 ft 197 kts 126°
2026-04-23 18:21 28.11620 -80.87472 1605 ft 183 kts 123°
2026-04-23 18:21 28.10910 -80.86338 1604 ft 170 kts 122°
2026-04-23 18:21 28.10218 -80.85249 1606 ft 174 kts 123°
2026-04-23 18:22 28.09532 -80.84129 1601 ft 171 kts 119°
2026-04-23 18:22 28.09404 -80.82849 1573 ft 165 kts 82°
2026-04-23 18:22 28.09427 -80.81513 1599 ft 174 kts 94°
2026-04-23 18:22 28.09456 -80.80202 1605 ft 169 kts 88°
2026-04-23 18:23 28.09492 -80.79299 1606 ft 165 kts 88°
2026-04-23 18:23 28.09621 -80.76623 1577 ft 134 kts 88°
2026-04-23 18:24 28.09721 -80.74589 1403 ft 127 kts 88°
2026-04-23 18:24 28.09767 -80.73579 1257 ft 127 kts 88°
2026-04-23 18:24 28.09812 -80.72678 1103 ft 123 kts 88°
2026-04-23 18:25 28.09905 -80.70504 896 ft 149 kts 87°
2026-04-23 18:25 28.09960 -80.69388 696 ft 136 kts 85°
2026-04-23 18:25 28.10002 -80.68357 476 ft 132 kts 86°
2026-04-23 18:25 28.10068 -80.67358 299 ft 126 kts 88°
2026-04-23 18:26 28.10119 -80.66397 106 ft 125 kts 86°
2026-04-23 18:26 28.10170 -80.65426 43 ft 115 kts 88°
2026-04-23 18:26 28.10202 -80.64722 41 ft 66 kts 84°
2026-04-23 18:26 28.10215 -80.64310 38 ft 46 kts 86°
2026-04-23 18:27 28.10232 -80.63971 37 ft 42 kts 87°
2026-04-23 18:27 28.10226 -80.63660 38 ft 37 kts 107°
2026-04-23 18:27 28.10089 -80.63476 34 ft 27 kts 132°
2026-04-23 18:27 28.10000 -80.63368 39 ft 17 kts 134°
2026-04-23 18:28 28.09920 -80.63284 37 ft 12 kts 159°
2026-04-23 18:28 28.09864 -80.63251 37 ft 6 kts 139°
2026-04-23 18:28 28.09843 -80.63229 35 ft 3 kts 136°
2026-04-23 18:28 28.09834 -80.63220 36 ft 0 kts 136°